Time,TemperatureF,DewpointF,PressureIn,WindDirection,WindDirectionDegrees,WindSpeedMPH,WindSpeedGustMPH,Humidity,HourlyPrecipIn,Conditions,Clouds,dailyrainin,SoftwareType,DateUTC
2013-06-23 00:01:00,75.0,72.0,30.16,South,188,0.0,2.0,90,0.00,,,0.62,meteohub,2013-06-23 04:01:00,
2013-06-23 00:02:00,75.0,72.0,30.15,South,188,0.0,2.0,90,0.00,,,0.62,meteohub,2013-06-23 04:02:00,
2013-06-23 00:07:00,74.8,71.8,30.16,South,188,0.0,2.0,90,0.00,,,0.62,meteohub,2013-06-23 04:07:00,
2013-06-23 00:12:00,74.8,72.0,30.16,South,188,0.0,2.0,91,0.00,,,0.00,meteohub,2013-06-23 04:12:00,
2013-06-23 00:17:00,74.8,72.0,30.16,South,188,0.0,0.0,91,0.00,,,0.00,meteohub,2013-06-23 04:17:00,
2013-06-23 00:22:00,74.7,71.8,30.15,South,188,0.0,0.0,91,0.00,,,0.00,meteohub,2013-06-23 04:22:00,
2013-06-23 00:27:00,74.5,72.0,30.16,South,188,0.0,0.0,92,0.00,,,0.00,meteohub,2013-06-23 04:27:00,
2013-06-23 00:32:00,74.1,71.6,30.15,South,188,0.0,0.0,92,0.00,,,0.00,meteohub,2013-06-23 04:32:00,
2013-06-23 00:37:00,74.1,72.0,30.15,South,188,0.0,0.0,93,0.00,,,0.00,meteohub,2013-06-23 04:37:00,
2013-06-23 00:42:00,74.3,72.1,30.15,SSW,200,0.0,0.0,93,0.00,,,0.00,meteohub,2013-06-23 04:42:00,
2013-06-23 00:47:00,74.5,72.3,30.15,South,176,0.0,3.0,93,0.00,,,0.00,meteohub,2013-06-23 04:47:00,
2013-06-23 00:52:00,74.7,72.5,30.15,South,169,0.0,3.0,93,0.00,,,0.00,meteohub,2013-06-23 04:52:00,
2013-06-23 00:57:00,74.7,72.5,30.15,SW,215,1.0,3.0,93,0.00,,,0.00,meteohub,2013-06-23 04:57:00,
2013-06-23 01:02:00,74.8,72.7,30.15,South,182,0.0,3.0,93,0.00,,,0.00,meteohub,2013-06-23 05:02:00,
2013-06-23 01:07:00,74.8,72.7,30.15,SW,217,0.0,3.0,93,0.00,,,0.00,meteohub,2013-06-23 05:07:00,
2013-06-23 01:12:00,75.0,72.9,30.15,SW,215,0.0,2.0,93,0.00,,,0.00,meteohub,2013-06-23 05:12:00,
2013-06-23 01:17:00,75.0,72.9,30.15,SSW,192,0.0,2.0,93,0.00,,,0.00,meteohub,2013-06-23 05:17:00,
2013-06-23 01:22:00,75.0,72.9,30.15,SSW,195,0.0,3.0,93,0.00,,,0.00,meteohub,2013-06-23 05:22:00,
2013-06-23 01:27:00,75.0,72.9,30.15,SW,230,0.0,3.0,93,0.00,,,0.00,meteohub,2013-06-23 05:27:00,
2013-06-23 01:32:00,75.0,72.9,30.14,SW,222,0.0,3.0,93,0.00,,,0.00,meteohub,2013-06-23 05:32:00,
2013-06-23 01:37:00,75.0,72.9,30.14,SW,222,0.0,3.0,93,0.00,,,0.00,meteohub,2013-06-23 05:37:00,
2013-06-23 01:42:00,75.0,72.9,30.14,SW,222,0.0,3.0,93,0.00,,,0.00,meteohub,2013-06-23 05:42:00,
2013-06-23 01:47:00,75.2,73.0,30.14,SW,222,0.0,3.0,93,0.00,,,0.00,meteohub,2013-06-23 05:47:00,
2013-06-23 01:52:00,75.0,72.9,30.14,SSW,213,0.0,3.0,93,0.00,,,0.00,meteohub,2013-06-23 05:52:00,
2013-06-23 01:57:00,75.2,73.0,30.14,SW,229,0.0,3.0,93,0.00,,,0.00,meteohub,2013-06-23 05:57:00,
2013-06-23 02:02:00,75.4,73.2,30.14,SW,223,1.0,2.0,93,0.00,,,0.00,meteohub,2013-06-23 06:02:00,
2013-06-23 02:07:00,75.4,73.2,30.14,SW,223,0.0,2.0,93,0.00,,,0.00,meteohub,2013-06-23 06:07:00,
2013-06-23 02:12:00,75.4,73.2,30.14,SW,223,0.0,2.0,93,0.00,,,0.00,meteohub,2013-06-23 06:12:00,
2013-06-23 02:17:00,75.2,73.0,30.14,SW,223,0.0,2.0,93,0.00,,,0.00,meteohub,2013-06-23 06:17:00,
2013-06-23 02:22:00,75.2,73.0,30.14,SW,223,0.0,2.0,93,0.00,,,0.00,meteohub,2013-06-23 06:22:00,
2013-06-23 02:27:00,75.4,73.2,30.14,SW,223,0.0,2.0,93,0.00,,,0.00,meteohub,2013-06-23 06:27:00,
2013-06-23 02:32:00,75.4,73.2,30.14,SW,223,0.0,0.0,93,0.00,,,0.00,meteohub,2013-06-23 06:32:00,
2013-06-23 02:37:00,75.2,73.0,30.14,SW,223,0.0,0.0,93,0.00,,,0.00,meteohub,2013-06-23 06:37:00,
2013-06-23 02:42:00,75.0,72.9,30.14,SW,223,0.0,0.0,93,0.00,,,0.00,meteohub,2013-06-23 06:42:00,
2013-06-23 02:47:00,75.0,72.9,30.14,SW,223,0.0,0.0,93,0.00,,,0.00,meteohub,2013-06-23 06:47:00,
2013-06-23 02:52:00,75.0,72.9,30.14,SW,223,0.0,0.0,93,0.00,,,0.00,meteohub,2013-06-23 06:52:00,
2013-06-23 02:57:00,74.8,72.7,30.14,SW,223,0.0,0.0,93,0.00,,,0.00,meteohub,2013-06-23 06:57:00,
2013-06-23 03:02:00,74.7,72.5,30.14,SW,223,0.0,0.0,93,0.00,,,0.00,meteohub,2013-06-23 07:02:00,
2013-06-23 03:07:00,74.5,72.3,30.14,SW,223,0.0,0.0,93,0.00,,,0.00,meteohub,2013-06-23 07:07:00,
2013-06-23 03:12:00,74.3,72.1,30.14,SW,223,0.0,0.0,93,0.00,,,0.00,meteohub,2013-06-23 07:12:00,
2013-06-23 03:17:00,73.9,72.1,30.14,SW,223,0.0,0.0,94,0.00,,,0.00,meteohub,2013-06-23 07:17:00,
2013-06-23 03:22:00,73.9,72.1,30.14,SW,223,0.0,0.0,94,0.00,,,0.00,meteohub,2013-06-23 07:22:00,
2013-06-23 03:27:00,73.8,72.0,30.14,SW,223,0.0,0.0,94,0.00,,,0.00,meteohub,2013-06-23 07:27:00,
2013-06-23 03:32:00,73.4,71.6,30.14,SW,223,0.0,0.0,94,0.00,,,0.00,meteohub,2013-06-23 07:32:00,
2013-06-23 03:37:00,73.2,71.4,30.14,SW,223,0.0,0.0,94,0.00,,,0.00,meteohub,2013-06-23 07:37:00,
2013-06-23 03:42:00,73.0,71.2,30.14,SW,223,0.0,0.0,94,0.00,,,0.00,meteohub,2013-06-23 07:42:00,
2013-06-23 03:47:00,72.9,71.4,30.14,SW,223,0.0,0.0,95,0.00,,,0.00,meteohub,2013-06-23 07:47:00,
2013-06-23 03:52:00,72.7,71.2,30.14,SW,223,0.0,0.0,95,0.00,,,0.00,meteohub,2013-06-23 07:52:00,
2013-06-23 03:57:00,72.7,71.2,30.14,SW,223,0.0,0.0,95,0.00,,,0.00,meteohub,2013-06-23 07:57:00,
2013-06-23 04:02:00,72.3,70.9,30.14,SW,223,0.0,0.0,95,0.00,,,0.00,meteohub,2013-06-23 08:02:00,
2013-06-23 04:07:00,72.3,70.9,30.14,SW,223,0.0,0.0,95,0.00,,,0.00,meteohub,2013-06-23 08:07:00,
2013-06-23 04:12:00,72.1,70.7,30.14,SW,223,0.0,0.0,95,0.00,,,0.00,meteohub,2013-06-23 08:12:00,
2013-06-23 04:17:00,72.1,70.7,30.14,SW,223,0.0,0.0,95,0.00,,,0.00,meteohub,2013-06-23 08:17:00,
2013-06-23 04:22:00,72.0,70.7,30.14,SW,223,0.0,0.0,96,0.00,,,0.00,meteohub,2013-06-23 08:22:00,
2013-06-23 04:27:00,72.0,70.7,30.14,SW,223,0.0,0.0,96,0.00,,,0.00,meteohub,2013-06-23 08:27:00,
2013-06-23 04:32:00,72.0,70.7,30.15,SW,223,0.0,0.0,96,0.00,,,0.00,meteohub,2013-06-23 08:32:00,
2013-06-23 04:37:00,71.8,70.5,30.15,SW,223,0.0,0.0,96,0.00,,,0.00,meteohub,2013-06-23 08:37:00,
2013-06-23 04:42:00,71.6,70.3,30.15,SW,223,0.0,0.0,96,0.00,,,0.00,meteohub,2013-06-23 08:42:00,
2013-06-23 04:47:00,71.6,70.3,30.15,SW,223,0.0,0.0,96,0.00,,,0.00,meteohub,2013-06-23 08:47:00,
2013-06-23 04:52:00,71.4,70.2,30.15,SW,223,0.0,0.0,96,0.00,,,0.00,meteohub,2013-06-23 08:52:00,
2013-06-23 04:57:00,71.2,70.0,30.15,SW,223,0.0,0.0,96,0.00,,,0.00,meteohub,2013-06-23 08:57:00,
2013-06-23 05:02:00,71.1,69.8,30.15,SW,223,0.0,0.0,96,0.00,,,0.00,meteohub,2013-06-23 09:02:00,
2013-06-23 05:07:00,70.9,69.6,30.15,SW,223,0.0,0.0,96,0.00,,,0.00,meteohub,2013-06-23 09:07:00,
2013-06-23 05:12:00,70.5,69.3,30.14,SW,223,0.0,0.0,96,0.00,,,0.00,meteohub,2013-06-23 09:12:00,
2013-06-23 05:17:00,70.3,69.1,30.15,SW,223,0.0,0.0,96,0.00,,,0.00,meteohub,2013-06-23 09:17:00,
2013-06-23 05:22:00,70.2,68.9,30.15,SW,223,0.0,0.0,96,0.00,,,0.00,meteohub,2013-06-23 09:22:00,
2013-06-23 05:27:00,70.2,68.9,30.15,SW,223,0.0,0.0,96,0.00,,,0.00,meteohub,2013-06-23 09:27:00,
2013-06-23 05:32:00,70.0,68.7,30.15,SW,223,0.0,0.0,96,0.00,,,0.00,meteohub,2013-06-23 09:32:00,
2013-06-23 05:37:00,70.0,69.1,30.15,SW,223,0.0,0.0,97,0.00,,,0.00,meteohub,2013-06-23 09:37:00,
2013-06-23 05:42:00,70.0,69.1,30.16,SW,223,0.0,0.0,97,0.00,,,0.00,meteohub,2013-06-23 09:42:00,
2013-06-23 05:47:00,70.2,69.3,30.16,SW,223,0.0,0.0,97,0.00,,,0.00,meteohub,2013-06-23 09:47:00,
2013-06-23 05:52:00,70.3,69.4,30.16,SW,223,0.0,0.0,97,0.00,,,0.00,meteohub,2013-06-23 09:52:00,
2013-06-23 05:57:00,70.3,69.4,30.16,SW,223,0.0,0.0,97,0.00,,,0.00,meteohub,2013-06-23 09:57:00,
2013-06-23 06:02:00,70.3,69.4,30.16,SW,223,0.0,0.0,97,0.00,,,0.00,meteohub,2013-06-23 10:02:00,
2013-06-23 06:07:00,70.2,69.3,30.16,SW,223,0.0,0.0,97,0.00,,,0.00,meteohub,2013-06-23 10:07:00,
2013-06-23 06:12:00,70.2,69.3,30.16,SW,223,0.0,0.0,97,0.00,,,0.00,meteohub,2013-06-23 10:12:00,
2013-06-23 06:17:00,70.0,69.1,30.16,SW,223,0.0,0.0,97,0.00,,,0.00,meteohub,2013-06-23 10:17:00,
2013-06-23 06:22:00,70.2,69.3,30.16,SW,223,0.0,0.0,97,0.00,,,0.00,meteohub,2013-06-23 10:22:00,
2013-06-23 06:27:00,70.3,69.4,30.16,West,262,0.0,0.0,97,0.00,,,0.00,meteohub,2013-06-23 10:27:00,
2013-06-23 06:32:00,70.5,70.0,30.16,West,262,0.0,0.0,98,0.00,,,0.00,meteohub,2013-06-23 10:32:00,
2013-06-23 06:37:00,71.1,70.5,30.16,West,262,0.0,0.0,98,0.00,,,0.00,meteohub,2013-06-23 10:37:00,
2013-06-23 06:42:00,71.4,70.9,30.16,West,262,0.0,0.0,98,0.00,,,0.00,meteohub,2013-06-23 10:42:00,
2013-06-23 06:47:00,72.1,71.6,30.16,West,262,0.0,0.0,98,0.00,,,0.00,meteohub,2013-06-23 10:47:00,
2013-06-23 06:52:00,72.5,72.0,30.17,West,262,0.0,0.0,98,0.00,,,0.00,meteohub,2013-06-23 10:52:00,
2013-06-23 06:57:00,73.0,72.5,30.17,West,262,0.0,0.0,98,0.00,,,0.00,meteohub,2013-06-23 10:57:00,
2013-06-23 07:02:00,73.8,73.2,30.17,West,262,0.0,0.0,98,0.00,,,0.00,meteohub,2013-06-23 11:02:00,
2013-06-23 07:07:00,74.3,73.8,30.17,WNW,292,0.0,0.0,98,0.00,,,0.00,meteohub,2013-06-23 11:07:00,
2013-06-23 07:12:00,74.8,74.3,30.17,WNW,292,0.0,0.0,98,0.00,,,0.00,meteohub,2013-06-23 11:12:00,
2013-06-23 07:17:00,75.6,75.0,30.17,WNW,292,0.0,0.0,98,0.00,,,0.00,meteohub,2013-06-23 11:17:00,
2013-06-23 07:22:00,76.1,75.6,30.17,ENE,78,0.0,0.0,98,0.00,,,0.00,meteohub,2013-06-23 11:22:00,
2013-06-23 07:27:00,76.6,75.7,30.17,ENE,78,0.0,0.0,97,0.00,,,0.00,meteohub,2013-06-23 11:27:00,
2013-06-23 07:32:00,77.0,75.7,30.17,East,94,0.0,0.0,96,0.00,,,0.00,meteohub,2013-06-23 11:32:00,
2013-06-23 07:37:00,77.4,75.7,30.17,ESE,119,0.0,0.0,95,0.00,,,0.00,meteohub,2013-06-23 11:37:00,
2013-06-23 07:42:00,77.5,75.7,30.17,ESE,123,0.0,2.0,94,0.00,,,0.00,meteohub,2013-06-23 11:42:00,
2013-06-23 07:47:00,78.1,75.9,30.17,West,260,0.0,2.0,93,0.00,,,0.00,meteohub,2013-06-23 11:47:00,
2013-06-23 07:52:00,78.4,75.9,30.18,WSW,253,1.0,2.0,92,0.00,,,0.00,meteohub,2013-06-23 11:52:00,
2013-06-23 07:57:00,78.6,75.7,30.18,SW,223,2.0,2.0,91,0.00,,,0.00,meteohub,2013-06-23 11:57:00,
2013-06-23 08:02:00,79.0,75.7,30.18,SW,228,0.0,2.0,90,0.00,,,0.00,meteohub,2013-06-23 12:02:00,
2013-06-23 08:07:00,79.3,75.7,30.18,SSE,151,0.0,4.0,89,0.00,,,0.00,meteohub,2013-06-23 12:07:00,
2013-06-23 08:12:00,79.9,75.9,30.18,East,80,0.0,4.0,88,0.00,,,0.00,meteohub,2013-06-23 12:12:00,
2013-06-23 08:17:00,80.1,75.9,30.18,ESE,107,1.0,4.0,87,0.00,,,0.00,meteohub,2013-06-23 12:17:00,
2013-06-23 08:22:00,80.1,75.9,30.18,ESE,104,0.0,4.0,87,0.00,,,0.00,meteohub,2013-06-23 12:22:00,
2013-06-23 08:27:00,80.4,76.1,30.18,East,82,0.0,4.0,87,0.00,,,0.00,meteohub,2013-06-23 12:27:00,
2013-06-23 08:32:00,80.4,75.9,30.18,East,94,1.0,4.0,86,0.00,,,0.00,meteohub,2013-06-23 12:32:00,
2013-06-23 08:37:00,80.2,75.7,30.18,WSW,243,0.0,5.0,86,0.00,,,0.00,meteohub,2013-06-23 12:37:00,
2013-06-23 08:42:00,80.4,75.9,30.19,West,259,0.0,5.0,86,0.00,,,0.00,meteohub,2013-06-23 12:42:00,
2013-06-23 08:47:00,80.4,75.2,30.19,WSW,254,2.0,5.0,84,0.00,,,0.00,meteohub,2013-06-23 12:47:00,
2013-06-23 08:52:00,79.9,74.7,30.19,SSW,201,0.0,5.0,84,0.00,,,0.00,meteohub,2013-06-23 12:52:00,
2013-06-23 08:57:00,80.1,75.6,30.19,SW,218,0.0,5.0,86,0.00,,,0.00,meteohub,2013-06-23 12:57:00,
2013-06-23 09:02:00,80.2,75.7,30.19,ESE,107,0.0,5.0,86,0.00,,,0.00,meteohub,2013-06-23 13:02:00,
2013-06-23 09:07:00,80.8,75.9,30.19,ENE,59,0.0,5.0,85,0.00,,,0.00,meteohub,2013-06-23 13:07:00,
2013-06-23 09:12:00,81.1,75.6,30.19,SE,124,2.0,5.0,83,0.00,,,0.00,meteohub,2013-06-23 13:12:00,
2013-06-23 09:17:00,81.5,76.3,30.19,East,97,1.0,5.0,84,0.00,,,0.00,meteohub,2013-06-23 13:17:00,
2013-06-23 09:22:00,81.7,75.9,30.18,ESE,102,0.0,5.0,83,0.00,,,0.00,meteohub,2013-06-23 13:22:00,
2013-06-23 09:27:00,82.0,76.3,30.18,SSE,164,0.0,5.0,83,0.00,,,0.00,meteohub,2013-06-23 13:27:00,
2013-06-23 09:32:00,82.2,75.4,30.18,ESE,113,2.0,5.0,80,0.00,,,0.00,meteohub,2013-06-23 13:32:00,
2013-06-23 09:37:00,82.2,75.7,30.18,ENE,76,0.0,7.0,81,0.00,,,0.00,meteohub,2013-06-23 13:37:00,
2013-06-23 09:42:00,82.6,75.7,30.18,SSW,194,0.0,7.0,80,0.00,,,0.00,meteohub,2013-06-23 13:42:00,
2013-06-23 09:47:00,82.8,75.9,30.18,SW,234,0.0,7.0,80,0.00,,,0.00,meteohub,2013-06-23 13:47:00,
2013-06-23 09:52:00,82.2,75.4,30.18,WSW,240,0.0,7.0,80,0.00,,,0.00,meteohub,2013-06-23 13:52:00,
2013-06-23 09:57:00,82.2,75.7,30.19,SW,216,0.0,7.0,81,0.00,,,0.00,meteohub,2013-06-23 13:57:00,
2013-06-23 10:03:00,81.9,76.1,30.19,SW,223,0.0,7.0,83,0.00,,,0.00,meteohub,2013-06-23 14:03:00,
2013-06-23 10:08:00,80.8,75.9,30.19,WSW,254,3.0,8.0,85,0.00,,,0.00,meteohub,2013-06-23 14:08:00,
2013-06-23 10:13:00,80.1,75.2,30.19,South,180,0.0,8.0,85,0.00,,,0.00,meteohub,2013-06-23 14:13:00,
2013-06-23 10:18:00,79.5,75.4,30.19,SSW,206,1.0,8.0,87,0.00,,,0.01,meteohub,2013-06-23 14:18:00,
2013-06-23 10:23:00,78.6,74.8,30.19,South,169,0.0,8.0,88,0.00,,,0.01,meteohub,2013-06-23 14:23:00,
2013-06-23 10:28:00,78.1,74.8,30.19,SSE,167,1.0,8.0,90,0.03,,,0.01,meteohub,2013-06-23 14:28:00,
2013-06-23 10:34:00,77.7,74.5,30.19,South,188,0.0,6.0,90,0.03,,,0.01,meteohub,2013-06-23 14:34:00,
2013-06-23 10:39:00,77.5,74.7,30.20,SSW,211,0.0,6.0,91,0.03,,,0.01,meteohub,2013-06-23 14:39:00,
2013-06-23 10:44:00,77.0,74.5,30.20,NNW,340,1.0,6.0,92,0.03,,,0.05,meteohub,2013-06-23 14:44:00,
2013-06-23 10:49:00,76.3,74.1,30.21,SE,134,7.0,7.0,93,0.03,,,0.05,meteohub,2013-06-23 14:49:00,
2013-06-23 10:54:00,75.4,72.9,30.22,SW,232,0.0,6.0,92,0.28,,,0.05,meteohub,2013-06-23 14:54:00,
2013-06-23 10:59:00,75.0,72.9,30.22,SW,222,0.0,9.0,93,0.28,,,0.05,meteohub,2013-06-23 14:59:00,
2013-06-23 11:04:00,75.0,73.2,30.21,SSE,148,0.0,9.0,94,0.28,,,0.05,meteohub,2013-06-23 15:04:00,
2013-06-23 11:09:00,75.0,73.4,30.20,NNW,330,0.0,9.0,95,0.28,,,0.05,meteohub,2013-06-23 15:09:00,
2013-06-23 11:14:00,75.0,73.4,30.20,SSW,198,2.0,9.0,95,0.28,,,0.35,meteohub,2013-06-23 15:14:00,
2013-06-23 11:19:00,75.0,73.4,30.20,SW,221,0.0,9.0,95,0.28,,,0.35,meteohub,2013-06-23 15:19:00,
2013-06-23 11:24:00,75.0,73.8,30.20,NNE,32,0.0,9.0,96,0.35,,,0.35,meteohub,2013-06-23 15:24:00,
2013-06-23 11:29:00,75.0,73.8,30.20,South,190,0.0,5.0,96,0.35,,,0.35,meteohub,2013-06-23 15:29:00,
2013-06-23 11:35:00,75.0,73.8,30.20,South,188,0.0,5.0,96,0.35,,,0.35,meteohub,2013-06-23 15:35:00,
2013-06-23 11:41:00,75.4,74.1,30.20,South,188,0.0,5.0,96,0.35,,,0.35,meteohub,2013-06-23 15:41:00,
2013-06-23 11:46:00,75.7,74.5,30.20,SE,135,0.0,5.0,96,0.35,,,0.36,meteohub,2013-06-23 15:46:00,
2013-06-23 11:51:00,75.7,74.5,30.19,West,265,0.0,0.0,96,0.28,,,0.36,meteohub,2013-06-23 15:51:00,
2013-06-23 11:56:00,75.4,74.1,30.19,South,170,0.0,0.0,96,0.28,,,0.36,meteohub,2013-06-23 15:56:00,
2013-06-23 12:01:00,75.4,74.1,30.19,ESE,120,0.0,0.0,96,0.28,,,0.36,meteohub,2013-06-23 16:01:00,
2013-06-23 12:06:00,75.4,74.1,30.19,ESE,120,0.0,0.0,96,0.28,,,0.36,meteohub,2013-06-23 16:06:00,
2013-06-23 12:11:00,75.4,74.1,30.19,South,182,2.0,0.0,96,0.28,,,0.38,meteohub,2013-06-23 16:11:00,
2013-06-23 12:16:00,75.6,74.3,30.19,South,169,0.0,0.0,96,0.28,,,0.38,meteohub,2013-06-23 16:16:00,
2013-06-23 12:21:00,75.9,74.7,30.19,SSW,197,0.0,4.0,96,0.02,,,0.38,meteohub,2013-06-23 16:21:00,
2013-06-23 12:26:00,76.5,75.6,30.19,WSW,244,0.0,4.0,97,0.02,,,0.38,meteohub,2013-06-23 16:26:00,
2013-06-23 12:31:00,77.5,76.6,30.19,West,259,3.0,4.0,97,0.02,,,0.38,meteohub,2013-06-23 16:31:00,
2013-06-23 12:36:00,77.7,76.5,30.19,SSE,153,0.0,4.0,96,0.02,,,0.38,meteohub,2013-06-23 16:36:00,
2013-06-23 12:41:00,78.1,76.3,30.19,South,184,0.0,4.0,94,0.02,,,0.39,meteohub,2013-06-23 16:41:00,
2013-06-23 12:46:00,78.6,77.0,30.19,SSW,207,4.0,4.0,95,0.02,,,0.39,meteohub,2013-06-23 16:46:00,
2013-06-23 12:51:00,78.8,76.3,30.19,SW,236,4.0,4.0,92,0.03,,,0.39,meteohub,2013-06-23 16:51:00,
2013-06-23 12:56:00,79.0,76.1,30.19,SSW,207,0.0,7.0,91,0.03,,,0.39,meteohub,2013-06-23 16:56:00,
2013-06-23 13:00:00,79.0,76.1,30.19,South,185,0.0,7.0,91,0.03,,,0.39,meteohub,2013-06-23 17:00:00,
2013-06-23 13:03:00,79.0,76.1,30.19,South,185,0.0,7.0,91,0.03,,,0.39,meteohub,2013-06-23 17:03:00,
2013-06-23 13:09:00,79.0,76.1,30.19,East,85,3.0,7.0,91,0.03,,,0.39,meteohub,2013-06-23 17:09:00,
2013-06-23 13:14:00,79.0,76.1,30.19,SSE,159,0.0,7.0,91,0.03,,,0.39,meteohub,2013-06-23 17:14:00,
2013-06-23 13:19:00,79.3,76.8,30.19,ESE,114,0.0,7.0,92,0.03,,,0.39,meteohub,2013-06-23 17:19:00,
2013-06-23 13:24:00,79.0,76.1,30.18,ENE,75,2.0,7.0,91,0.01,,,0.39,meteohub,2013-06-23 17:24:00,
2013-06-23 13:29:00,79.0,76.5,30.18,SE,141,0.0,7.0,92,0.01,,,0.39,meteohub,2013-06-23 17:29:00,
2013-06-23 13:34:00,79.2,76.3,30.19,SE,133,0.0,7.0,91,0.01,,,0.39,meteohub,2013-06-23 17:34:00,
2013-06-23 13:39:00,79.2,76.3,30.18,East,94,0.0,7.0,91,0.01,,,0.39,meteohub,2013-06-23 17:39:00,
2013-06-23 13:44:00,79.9,76.6,30.18,East,82,1.0,7.0,90,0.01,,,0.39,meteohub,2013-06-23 17:44:00,
2013-06-23 13:49:00,80.4,77.2,30.18,South,179,0.0,7.0,90,0.00,,,0.39,meteohub,2013-06-23 17:49:00,
2013-06-23 13:54:00,80.8,76.8,30.18,ESE,112,0.0,7.0,88,0.00,,,0.39,meteohub,2013-06-23 17:54:00,
2013-06-23 13:59:00,80.8,76.5,30.18,ESE,121,0.0,7.0,87,0.00,,,0.39,meteohub,2013-06-23 17:59:00,
2013-06-23 14:04:00,81.0,76.6,30.18,South,191,6.0,7.0,87,0.00,,,0.39,meteohub,2013-06-23 18:04:00,
2013-06-23 14:09:00,81.1,76.5,30.18,SSE,152,4.0,7.0,86,0.00,,,0.39,meteohub,2013-06-23 18:09:00,
2013-06-23 14:14:00,80.8,76.3,30.17,ESE,109,0.0,7.0,86,0.00,,,0.39,meteohub,2013-06-23 18:14:00,
2013-06-23 14:19:00,80.8,75.9,30.17,SW,231,6.0,8.0,85,0.00,,,0.39,meteohub,2013-06-23 18:19:00,
2013-06-23 14:24:00,80.4,75.6,30.18,West,259,0.0,8.0,85,0.00,,,0.39,meteohub,2013-06-23 18:24:00,
2013-06-23 14:29:00,80.4,75.9,30.17,South,189,1.0,8.0,86,0.00,,,0.39,meteohub,2013-06-23 18:29:00,
2013-06-23 14:34:00,80.8,76.3,30.17,NE,53,0.0,8.0,86,0.00,,,0.39,meteohub,2013-06-23 18:34:00,
2013-06-23 14:39:00,80.6,76.1,30.17,SSW,213,4.0,8.0,86,0.00,,,0.39,meteohub,2013-06-23 18:39:00,
2013-06-23 14:44:00,80.2,75.7,30.17,ENE,72,0.0,11.0,86,0.00,,,0.39,meteohub,2013-06-23 18:44:00,
2013-06-23 14:49:00,80.1,75.9,30.16,East,98,6.0,11.0,87,0.00,,,0.39,meteohub,2013-06-23 18:49:00,
2013-06-23 14:55:00,80.1,76.1,30.17,NE,46,0.0,11.0,88,0.00,,,0.39,meteohub,2013-06-23 18:55:00,
2013-06-23 15:00:00,80.8,76.5,30.17,NNE,31,0.0,11.0,87,0.00,,,0.39,meteohub,2013-06-23 19:00:00,
2013-06-23 15:05:00,81.1,76.5,30.16,ENE,59,3.0,11.0,86,0.00,,,0.39,meteohub,2013-06-23 19:05:00,
2013-06-23 15:09:00,81.5,76.8,30.17,ENE,78,0.0,11.0,86,0.00,,,0.39,meteohub,2013-06-23 19:09:00,
2013-06-23 15:15:00,81.3,76.5,30.16,NNE,30,0.0,7.0,85,0.00,,,0.39,meteohub,2013-06-23 19:15:00,
2013-06-23 15:20:00,81.1,76.3,30.15,SW,221,6.0,7.0,85,0.00,,,0.39,meteohub,2013-06-23 19:20:00,
2013-06-23 15:25:00,81.1,75.9,30.15,ESE,113,0.0,7.0,84,0.00,,,0.39,meteohub,2013-06-23 19:25:00,
2013-06-23 15:30:00,81.3,75.7,30.15,SSW,213,2.0,7.0,83,0.00,,,0.39,meteohub,2013-06-23 19:30:00,
2013-06-23 15:35:00,80.8,75.9,30.15,SE,140,4.0,7.0,85,0.00,,,0.39,meteohub,2013-06-23 19:35:00,
2013-06-23 15:40:00,80.1,75.9,30.15,SW,221,0.0,16.0,87,0.00,,,0.39,meteohub,2013-06-23 19:40:00,
2013-06-23 15:45:00,79.5,75.9,30.15,SSE,165,1.0,16.0,89,0.00,,,0.39,meteohub,2013-06-23 19:45:00,
2013-06-23 15:50:00,79.2,75.6,30.15,WSW,240,0.0,16.0,89,0.00,,,0.40,meteohub,2013-06-23 19:50:00,
2013-06-23 15:55:00,79.0,76.1,30.16,South,171,1.0,16.0,91,0.00,,,0.40,meteohub,2013-06-23 19:55:00,
2013-06-23 16:00:00,78.6,75.7,30.15,WNW,293,0.0,10.0,91,0.01,,,0.40,meteohub,2013-06-23 20:00:00,
2013-06-23 16:05:00,78.4,75.9,30.16,ENE,57,0.0,10.0,92,0.01,,,0.40,meteohub,2013-06-23 20:05:00,
2013-06-23 16:10:00,78.4,75.9,30.16,South,184,2.0,10.0,92,0.01,,,0.40,meteohub,2013-06-23 20:10:00,
2013-06-23 16:15:00,78.6,76.1,30.15,SE,132,0.0,10.0,92,0.01,,,0.40,meteohub,2013-06-23 20:15:00,
2013-06-23 16:20:00,79.0,76.1,30.16,East,101,0.0,10.0,91,0.01,,,0.40,meteohub,2013-06-23 20:20:00,
2013-06-23 16:25:00,79.0,76.1,30.16,SSW,210,0.0,10.0,91,0.01,,,0.40,meteohub,2013-06-23 20:25:00,
2013-06-23 16:30:00,78.4,75.6,30.16,SSE,158,0.0,10.0,91,0.01,,,0.40,meteohub,2013-06-23 20:30:00,
2013-06-23 16:35:00,78.3,75.7,30.16,SSE,159,0.0,10.0,92,0.01,,,0.40,meteohub,2013-06-23 20:35:00,
2013-06-23 16:40:00,78.3,75.7,30.16,East,88,3.0,10.0,92,0.01,,,0.40,meteohub,2013-06-23 20:40:00,
2013-06-23 16:45:00,78.1,75.9,30.16,SW,215,1.0,10.0,93,0.01,,,0.51,meteohub,2013-06-23 20:45:00,
2013-06-23 16:50:00,78.3,76.1,30.16,SSW,192,9.0,10.0,93,0.01,,,0.51,meteohub,2013-06-23 20:50:00,
2013-06-23 16:55:00,78.3,75.7,30.15,East,84,0.0,10.0,92,0.11,,,0.51,meteohub,2013-06-23 20:55:00,
2013-06-23 17:00:00,78.3,76.1,30.15,East,86,0.0,12.0,93,0.11,,,0.51,meteohub,2013-06-23 21:00:00,
2013-06-23 17:05:00,78.1,75.9,30.15,North,351,3.0,12.0,93,0.11,,,0.51,meteohub,2013-06-23 21:05:00,
2013-06-23 17:10:00,78.1,75.9,30.15,SSW,197,2.0,12.0,93,0.11,,,0.51,meteohub,2013-06-23 21:10:00,
2013-06-23 17:15:00,77.4,74.5,30.15,SW,224,2.0,12.0,91,0.11,,,0.51,meteohub,2013-06-23 21:15:00,
2013-06-23 17:20:00,76.5,73.6,30.15,NW,317,2.0,12.0,91,0.12,,,0.51,meteohub,2013-06-23 21:20:00,
2013-06-23 17:25:00,76.1,73.2,30.16,SE,135,0.0,12.0,91,0.12,,,0.51,meteohub,2013-06-23 21:25:00,
2013-06-23 17:30:00,75.7,72.9,30.16,SSW,193,1.0,12.0,91,0.12,,,0.51,meteohub,2013-06-23 21:30:00,
2013-06-23 17:35:00,75.7,73.2,30.16,SSE,147,0.0,12.0,92,0.12,,,0.52,meteohub,2013-06-23 21:35:00,
2013-06-23 17:40:00,75.9,73.0,30.17,West,265,1.0,12.0,91,0.12,,,0.52,meteohub,2013-06-23 21:40:00,
2013-06-23 17:45:00,76.3,73.4,30.17,SW,218,0.0,9.0,91,0.01,,,0.52,meteohub,2013-06-23 21:45:00,
2013-06-23 17:50:00,76.6,74.1,30.17,North,355,0.0,9.0,92,0.01,,,0.52,meteohub,2013-06-23 21:50:00,
2013-06-23 17:55:00,76.8,73.9,30.17,SE,136,4.0,9.0,91,0.01,,,0.52,meteohub,2013-06-23 21:55:00,
2013-06-23 18:00:00,77.2,74.3,30.17,East,79,0.0,9.0,91,0.01,,,0.52,meteohub,2013-06-23 22:00:00,
2013-06-23 18:05:00,77.4,74.5,30.17,ESE,118,0.0,9.0,91,0.01,,,0.52,meteohub,2013-06-23 22:05:00,
2013-06-23 18:10:00,77.4,74.5,30.17,SSE,159,0.0,9.0,91,0.01,,,0.52,meteohub,2013-06-23 22:10:00,
2013-06-23 18:15:00,77.4,74.5,30.17,SSW,211,3.0,7.0,91,0.01,,,0.52,meteohub,2013-06-23 22:15:00,
2013-06-23 18:20:00,77.4,74.5,30.17,West,278,0.0,7.0,91,0.01,,,0.52,meteohub,2013-06-23 22:20:00,
2013-06-23 18:25:00,77.5,75.0,30.17,East,100,0.0,7.0,92,0.01,,,0.52,meteohub,2013-06-23 22:25:00,
2013-06-23 18:30:00,77.7,75.2,30.17,SSW,196,0.0,7.0,92,0.01,,,0.52,meteohub,2013-06-23 22:30:00,
2013-06-23 18:35:00,78.3,75.4,30.17,SSW,207,0.0,7.0,91,0.01,,,0.52,meteohub,2013-06-23 22:35:00,
2013-06-23 18:40:00,78.3,75.0,30.17,SSW,207,0.0,7.0,90,0.01,,,0.52,meteohub,2013-06-23 22:40:00,
2013-06-23 18:45:00,78.3,74.7,30.17,SSE,155,0.0,5.0,89,0.00,,,0.52,meteohub,2013-06-23 22:45:00,
2013-06-23 18:50:00,78.1,74.5,30.17,SE,141,0.0,5.0,89,0.00,,,0.52,meteohub,2013-06-23 22:50:00,
2013-06-23 18:55:00,78.1,74.3,30.17,SSW,192,1.0,5.0,88,0.00,,,0.52,meteohub,2013-06-23 22:55:00,
2013-06-23 19:00:00,77.9,74.5,30.17,WSW,247,0.0,5.0,89,0.00,,,0.52,meteohub,2013-06-23 23:00:00,
2013-06-23 19:05:00,77.9,74.5,30.17,SW,220,0.0,5.0,89,0.00,,,0.52,meteohub,2013-06-23 23:05:00,
2013-06-23 19:10:00,77.9,74.5,30.17,SSW,199,0.0,5.0,89,0.00,,,0.52,meteohub,2013-06-23 23:10:00,
2013-06-23 19:15:00,77.7,73.9,30.17,WSW,240,0.0,5.0,88,0.00,,,0.52,meteohub,2013-06-23 23:15:00,
2013-06-23 19:20:00,77.7,73.6,30.17,SW,223,1.0,5.0,87,0.00,,,0.52,meteohub,2013-06-23 23:20:00,
2013-06-23 19:25:00,77.5,73.4,30.17,South,178,5.0,5.0,87,0.00,,,0.52,meteohub,2013-06-23 23:25:00,
2013-06-23 19:30:00,77.5,73.4,30.16,SSW,204,2.0,5.0,87,0.00,,,0.52,meteohub,2013-06-23 23:30:00,
2013-06-23 19:35:00,77.5,73.8,30.16,South,172,1.0,5.0,88,0.00,,,0.52,meteohub,2013-06-23 23:35:00,
2013-06-23 19:40:00,77.5,73.8,30.16,WSW,247,1.0,5.0,88,0.00,,,0.52,meteohub,2013-06-23 23:40:00,
2013-06-23 19:45:00,77.5,73.8,30.16,SW,224,2.0,5.0,88,0.00,,,0.52,meteohub,2013-06-23 23:45:00,
2013-06-23 19:50:00,77.4,73.2,30.15,ESE,109,0.0,8.0,87,0.00,,,0.52,meteohub,2013-06-23 23:50:00,
2013-06-23 19:55:00,77.2,73.4,30.15,West,268,0.0,8.0,88,0.00,,,0.52,meteohub,2013-06-23 23:55:00,
2013-06-23 20:00:00,77.0,73.2,30.16,SSW,201,2.0,8.0,88,0.00,,,0.52,meteohub,2013-06-24 00:00:00,
2013-06-23 20:05:00,77.0,73.6,30.15,SW,217,2.0,8.0,89,0.00,,,0.52,meteohub,2013-06-24 00:05:00,
2013-06-23 20:10:00,76.8,73.4,30.15,SSW,205,4.0,8.0,89,0.00,,,0.52,meteohub,2013-06-24 00:10:00,
2013-06-23 20:15:00,76.8,73.4,30.16,South,182,2.0,8.0,89,0.00,,,0.52,meteohub,2013-06-24 00:15:00,
2013-06-23 20:20:00,76.8,73.6,30.16,SSW,209,5.0,8.0,90,0.00,,,0.52,meteohub,2013-06-24 00:20:00,
2013-06-23 20:25:00,76.6,73.4,30.16,South,178,0.0,8.0,90,0.00,,,0.52,meteohub,2013-06-24 00:25:00,
2013-06-23 20:30:00,76.6,73.8,30.17,SW,221,0.0,8.0,91,0.00,,,0.52,meteohub,2013-06-24 00:30:00,
2013-06-23 20:35:00,76.6,73.8,30.17,SW,223,0.0,8.0,91,0.00,,,0.52,meteohub,2013-06-24 00:35:00,
2013-06-23 20:40:00,76.6,74.1,30.17,SW,219,0.0,8.0,92,0.00,,,0.52,meteohub,2013-06-24 00:40:00,
2013-06-23 20:45:00,76.5,73.9,30.17,SSW,207,0.0,4.0,92,0.00,,,0.52,meteohub,2013-06-24 00:45:00,
2013-06-23 20:50:00,76.5,73.9,30.17,SSW,211,0.0,4.0,92,0.00,,,0.52,meteohub,2013-06-24 00:50:00,
2013-06-23 20:55:00,76.5,73.9,30.18,WSW,258,0.0,4.0,92,0.00,,,0.52,meteohub,2013-06-24 00:55:00,
2013-06-23 21:00:00,76.5,73.9,30.18,SSW,194,0.0,4.0,92,0.00,,,0.52,meteohub,2013-06-24 01:00:00,
2013-06-23 21:05:00,76.5,73.9,30.18,South,173,0.0,4.0,92,0.00,,,0.52,meteohub,2013-06-24 01:05:00,
2013-06-23 21:10:00,76.5,73.9,30.18,SSW,211,0.0,4.0,92,0.00,,,0.52,meteohub,2013-06-24 01:10:00,
2013-06-23 21:15:00,76.5,73.9,30.18,SSW,211,0.0,2.0,92,0.00,,,0.52,meteohub,2013-06-24 01:15:00,
2013-06-23 21:20:00,76.3,73.8,30.18,SSW,201,0.0,2.0,92,0.00,,,0.52,meteohub,2013-06-24 01:20:00,
2013-06-23 21:25:00,76.3,73.8,30.18,SW,220,0.0,2.0,92,0.00,,,0.52,meteohub,2013-06-24 01:25:00,
2013-06-23 21:30:00,76.3,73.4,30.18,SW,219,0.0,2.0,91,0.00,,,0.52,meteohub,2013-06-24 01:30:00,
2013-06-23 21:35:00,76.3,73.4,30.18,SW,220,0.0,2.0,91,0.00,,,0.52,meteohub,2013-06-24 01:35:00,
2013-06-23 21:40:00,76.3,73.4,30.18,WSW,237,0.0,4.0,91,0.00,,,0.52,meteohub,2013-06-24 01:40:00,
2013-06-23 21:45:00,76.3,73.4,30.18,SSW,202,0.0,4.0,91,0.00,,,0.52,meteohub,2013-06-24 01:45:00,
2013-06-23 21:50:00,76.3,73.0,30.18,SW,219,0.0,4.0,90,0.00,,,0.52,meteohub,2013-06-24 01:50:00,
2013-06-23 21:55:00,76.3,73.0,30.18,South,190,0.0,4.0,90,0.00,,,0.52,meteohub,2013-06-24 01:55:00,
2013-06-23 22:00:00,76.3,73.0,30.18,South,187,2.0,5.0,90,0.00,,,0.52,meteohub,2013-06-24 02:00:00,
2013-06-23 22:05:00,76.3,73.0,30.18,SSW,205,1.0,5.0,90,0.00,,,0.52,meteohub,2013-06-24 02:05:00,
2013-06-23 22:10:00,76.3,73.0,30.18,SW,234,0.0,5.0,90,0.00,,,0.52,meteohub,2013-06-24 02:10:00,
2013-06-23 22:15:00,76.3,73.4,30.18,West,279,0.0,5.0,91,0.00,,,0.52,meteohub,2013-06-24 02:15:00,
2013-06-23 22:20:00,76.3,73.4,30.19,SW,217,1.0,5.0,91,0.00,,,0.52,meteohub,2013-06-24 02:20:00,
2013-06-23 22:25:00,76.3,73.4,30.18,SW,236,0.0,5.0,91,0.00,,,0.52,meteohub,2013-06-24 02:25:00,
2013-06-23 22:30:00,76.3,73.4,30.19,WSW,242,0.0,5.0,91,0.00,,,0.52,meteohub,2013-06-24 02:30:00,
2013-06-23 22:35:00,76.5,73.9,30.19,WSW,253,0.0,5.0,92,0.00,,,0.52,meteohub,2013-06-24 02:35:00,
2013-06-23 22:40:00,76.5,73.9,30.19,WSW,246,0.0,5.0,92,0.00,,,0.52,meteohub,2013-06-24 02:40:00,
2013-06-23 22:45:00,76.5,73.9,30.19,SW,234,0.0,5.0,92,0.00,,,0.52,meteohub,2013-06-24 02:45:00,
2013-06-23 22:50:00,76.5,73.9,30.19,South,183,0.0,5.0,92,0.00,,,0.52,meteohub,2013-06-24 02:50:00,
2013-06-23 22:55:00,76.5,73.9,30.19,SW,230,3.0,4.0,92,0.00,,,0.52,meteohub,2013-06-24 02:55:00,
2013-06-23 23:00:00,76.5,73.9,30.19,SW,227,0.0,4.0,92,0.00,,,0.52,meteohub,2013-06-24 03:00:00,
2013-06-23 23:05:00,76.5,73.9,30.19,WSW,249,1.0,4.0,92,0.00,,,0.52,meteohub,2013-06-24 03:05:00,
2013-06-23 23:10:00,76.5,73.9,30.19,SSW,213,1.0,4.0,92,0.00,,,0.52,meteohub,2013-06-24 03:10:00,
2013-06-23 23:15:00,76.5,73.9,30.19,SSW,203,4.0,4.0,92,0.00,,,0.52,meteohub,2013-06-24 03:15:00,
2013-06-23 23:20:00,76.5,73.9,30.19,SSW,199,1.0,6.0,92,0.00,,,0.52,meteohub,2013-06-24 03:20:00,
2013-06-23 23:25:00,76.5,74.3,30.19,SSW,200,0.0,6.0,93,0.00,,,0.52,meteohub,2013-06-24 03:25:00,
2013-06-23 23:30:00,76.5,74.3,30.18,SSW,199,0.0,6.0,93,0.00,,,0.52,meteohub,2013-06-24 03:30:00,
2013-06-23 23:35:00,76.5,74.3,30.18,South,181,0.0,6.0,93,0.00,,,0.52,meteohub,2013-06-24 03:35:00,
2013-06-23 23:41:00,76.3,74.1,30.18,SW,232,0.0,6.0,93,0.00,,,0.52,meteohub,2013-06-24 03:41:00,
2013-06-23 23:46:00,76.3,74.1,30.19,South,175,0.0,3.0,93,0.00,,,0.52,meteohub,2013-06-24 03:46:00,
2013-06-23 23:51:00,76.3,74.1,30.19,SSW,211,0.0,3.0,93,0.00,,,0.52,meteohub,2013-06-24 03:51:00,
2013-06-23 23:55:00,76.3,74.1,30.18,South,188,0.0,3.0,93,0.00,,,0.52,meteohub,2013-06-24 03:55:00,